Find Starlink 32124

NORAD ID: 60298 Int'l Des: 2024-132 Owner: SPXS Country: US Constellation: starlink operational
LEOCIRCULAR

当前视图

正在加载3D地球...

About Starlink 32124

Starlink 32124 (NORAD 60298) is a starlink constellation satellite (v2 mini) launched Jul 28, 2024 by SPXS of US. It operates in LEO, CIRCULAR orbit with a mass of 730.00 kg.

即将过境

Passes for default location (London). Set your location on the main map for personalized predictions.

高度历史

Loading altitude history...

两行轨道根数

1 60298U 24132W 26237.71000564 .00002504 00000-0 92461-4 0 9997
2 60298 53.1611 346.2545 0001568 70.8943 289.2228 15.31687763117452
Epoch: Aug 25, 2026 • Age: 17 hours

当前状态

高度 482.0 km
远地点 / 近地点 N/A
速度 7.62 km/s
星下点 -34.10°S, 173.13°W
发射日期 Jul 28, 2024
运行时间 2 years
类型 internet

技术详情

分类 Payload
质量 730.00 kg
干质量 700.00 kg
总质量 730.00 kg
长度 0.30 m
直径 4.10 m
跨度 29.00 m
形状 Box + pan
制造商 SPXS
平台类型 Starlink V2M
阶段状态 In Orbit
所有者/国家 SPXS/US

Most Searched